Meteo18 Weather Cam more information Meteo18 Weather Cam


Thunder radar more information blitzortung!


Rain radar more information rain snow radar



Select another period ( hide this area )

Units Period Custom range Directly to
Metric English Both
Daily Weekly Monthly Yearly
use both date-selectors for a custom range
previous Day
With this date

WeatherUnderground graphs for this period ( click here )


Daily Summary for Monday 22 October 2018
Time Temp. ( °C ) Dew pt. ( °C ) Wind ( km/h ) from Gust ( km/h ) Pressure ( hPa ) Humid.( % ) Rainrate ( cm )
High18,1 9,4 32,0 NNE ( 475/1917 ) 38,6 1028,7 82 -
Average11,6 6,3 10,0 North #47/192 18,0 1026,4 71 -
Low7,9 4,8 1,4   6,4 1024,3 54 -
Daily Tabular details for Monday 22 October 2018
Time Temp. ( °C ) Dew pt. ( °C ) Wind ( km/h ) from Gust ( km/h ) Pressure ( hPa ) Humid.( % ) Rainrate ( cm )
00:03 11,4 6,3 4,7 NNE 14,5 1024,6 71 -
00:09 11,3 6,4 4,7 NNW 11,3 1024,6 72 -
00:13 11,2 6,3 4,7 NNE 11,3 1024,3 72 -
00:19 11,1 6,2 3,2 NNE 11,3 1024,3 72 -
00:23 11,0 6,3 6,4 North 12,9 1024,3 73 -
00:29 10,9 6,3 3,2 NE 14,5 1024,3 73 -
00:33 10,8 6,2 6,4 North 11,3 1024,6 73 -
00:39 10,8 6,4 4,7 NNW 11,3 1024,6 74 -
00:43 10,7 6,1 4,7 ENE 8,0 1024,3 73 -
00:49 10,7 6,3 7,9 NNE 16,1 1024,6 74 -
00:53 10,7 6,3 13,0 NNE 12,9 1024,6 74 -
00:59 10,8 6,4 11,1 NE 12,9 1024,6 74 -
01:03 10,7 6,3 3,2 NNW 12,9 1024,6 74 -
01:09 10,7 6,3 3,2 NNW 11,3 1024,6 74 -
01:13 10,6 6,2 7,9 North 11,3 1024,6 74 -
01:19 10,5 6,3 4,7 NE 9,7 1024,6 75 -
01:23 10,4 6,2 1,4 North 8,0 1024,6 75 -
01:29 10,4 6,2 4,7 NNW 9,7 1024,6 75 -
01:33 10,6 6,4 3,2 North 12,9 1024,6 75 -
01:39 10,7 6,3 3,2 NNW 14,5 1024,6 74 -
01:43 10,7 6,3 4,7 North 9,7 1024,6 74 -
01:49 10,8 6,2 9,7 NNW 11,3 1024,6 73 -
01:53 10,8 6,2 3,2 NNW 12,9 1024,6 73 -
01:59 10,7 6,1 7,9 NW 17,7 1024,6 73 -
02:03 10,7 6,1 6,4 NNE 8,0 1024,6 73 -
02:09 10,7 6,3 3,2 NE 11,3 1024,6 74 -
02:13 10,6 6,0 3,2 NNE 9,7 1024,6 73 -
02:19 10,6 6,2 9,7 NNE 11,3 1024,6 74 -
02:23 10,7 6,3 4,7 NNW 12,9 1024,6 74 -
02:29 10,7 6,1 9,7 NNE 14,5 1024,9 73 -
02:33 10,6 6,0 9,7 North 16,1 1024,9 73 -
02:39 10,6 6,2 6,4 North 16,1 1024,9 74 -
02:43 10,5 6,1 6,4 North 16,1 1024,9 74 -
02:49 10,4 6,0 4,7 NNW 12,9 1024,9 74 -
02:53 10,5 6,1 6,4 ENE 16,1 1024,9 74 -
02:59 10,5 6,1 4,7 North 12,9 1024,9 74 -
03:03 10,5 6,1 11,1 NNW 14,5 1024,9 74 -
03:09 10,4 6,0 7,9 NW 16,1 1024,9 74 -
03:13 10,4 6,0 6,4 NE 16,1 1024,9 74 -
03:19 10,4 6,0 1,4 ENE 16,1 1024,9 74 -
03:23 10,3 5,9 4,7 NE 9,7 1024,9 74 -
03:29 10,2 5,8 6,4 North 11,3 1024,9 74 -
03:33 10,1 5,7 3,2 NW 6,4 1024,9 74 -
03:39 9,8 5,6 1,4 NW 8,0 1024,9 75 -
03:43 9,8 5,8 4,7 North 6,4 1024,9 76 -
03:49 9,7 5,7 1,4 North 8,0 1024,9 76 -
03:53 9,7 5,7 4,7 NNW 6,4 1024,9 76 -
03:59 9,7 5,7 1,4 NNW 9,7 1024,9 76 -
04:03 9,7 5,7 3,2 NE 8,0 1024,9 76 -
04:09 9,8 5,8 14,3 North 16,1 1024,9 76 -
04:13 9,8 5,8 6,4 NNE 12,9 1024,9 76 -
04:19 9,8 5,8 9,7 North 16,1 1024,9 76 -
04:23 9,8 5,8 4,7 NNW 11,3 1024,9 76 -
04:29 9,8 5,8 9,7 North 11,3 1024,9 76 -
04:33 9,8 5,8 4,7 NNE 8,0 1024,9 76 -
04:39 9,8 5,8 13,0 NE 14,5 1024,9 76 -
04:43 9,7 5,7 13,0 NE 19,3 1024,9 76 -
04:49 9,6 5,8 11,1 NNE 17,7 1024,9 77 -
04:53 9,5 5,7 11,1 NE 16,1 1024,9 77 -
04:59 9,3 5,5 11,1 NE 19,3 1024,9 77 -
05:03 9,3 5,7 9,7 NNE 20,9 1024,9 78 -
05:09 9,1 5,5 3,2 North 19,3 1024,9 78 -
05:13 9,0 5,4 7,9 North 12,9 1024,9 78 -
05:19 8,8 5,4 7,9 NNW 16,1 1024,9 79 -
05:23 8,8 5,4 7,9 North 12,9 1024,9 79 -
05:29 8,7 5,4 4,7 NNE 11,3 1024,9 80 -
05:33 8,6 5,3 7,9 North 9,7 1024,9 80 -
05:39 8,6 5,3 6,4 NNE 11,3 1024,9 80 -
05:43 8,4 5,2 4,7 NNW 9,7 1024,9 80 -
05:49 8,4 5,2 7,9 NNW 11,3 1024,9 80 -
05:53 8,4 5,3 4,7 NE 12,9 1024,9 81 -
05:59 8,3 5,2 7,9 NNE 12,9 1024,9 81 -
06:03 8,3 5,2 11,1 North 12,9 1025,3 81 -
06:07 8,3 5,2 6,4 NNW 16,1 1024,9 81 -
06:13 8,3 5,2 7,9 NNE 16,1 1024,9 81 -
06:18 8,3 5,2 11,1 NNE 14,5 1025,3 81 -
06:24 8,2 5,1 13,0 North 12,9 1025,3 81 -
06:28 8,1 5,0 6,4 NNE 14,5 1025,3 81 -
06:34 8,1 5,0 7,9 NNE 12,9 1025,3 81 -
06:38 8,1 5,0 13,0 NNW 12,9 1025,3 81 -
06:44 8,0 5,1 9,7 NE 11,3 1025,3 82 -
06:48 8,0 5,1 6,4 ENE 14,5 1025,6 82 -
06:54 8,0 4,9 9,7 ESE 14,5 1025,6 81 -
06:58 8,0 5,1 13,0 NNE 14,5 1025,6 82 -
07:04 8,0 4,9 4,7 NNE 11,3 1025,6 81 -
07:08 7,9 4,8 7,9 NNE 12,9 1025,6 81 -
07:14 8,0 4,9 6,4 North 12,9 1025,6 81 -
07:18 8,1 5,0 9,7 NNW 14,5 1025,6 81 -
07:24 8,2 5,0 16,3 North 17,7 1025,6 80 -
07:28 8,3 5,1 6,4 NNW 12,9 1025,6 80 -
07:34 8,3 5,1 9,7 North 14,5 1026,0 80 -
07:38 8,2 5,0 11,1 North 16,1 1026,0 80 -
07:44 8,2 5,0 13,0 NNW 19,3 1026,0 80 -
07:48 8,3 4,9 7,9 NNW 14,5 1026,0 79 -
07:54 8,2 4,8 7,9 NE 11,3 1026,0 79 -
07:58 8,2 4,8 4,7 NNE 14,5 1026,0 79 -
08:04 8,2 4,8 9,7 North 12,9 1026,0 79 -
08:08 8,2 4,8 6,4 NW 12,9 1026,3 79 -
08:14 8,2 4,8 3,2 ENE 20,9 1026,3 79 -
08:18 8,2 4,8 7,9 WNW 12,9 1026,3 79 -
08:24 8,2 4,8 6,4 North 14,5 1026,6 79 -
08:28 8,2 5,0 3,2 NNW 9,7 1026,6 80 -
08:34 8,2 5,0 6,4 NNW 16,1 1026,6 80 -
08:38 8,3 4,9 7,9 NNE 12,9 1026,6 79 -
08:44 8,2 5,0 1,4 NE 11,3 1026,6 80 -
08:48 8,2 5,0 14,3 North 14,5 1027,0 80 -
08:54 8,3 5,1 7,9 NNE 9,7 1027,0 80 -
08:58 8,4 5,0 4,7 NNE 9,7 1027,0 79 -
09:04 8,6 5,2 14,3 NE 17,7 1027,0 79 -
09:08 8,7 5,1 6,4 NE 19,3 1027,0 78 -
09:14 8,8 5,2 4,7 ENE 19,3 1027,0 78 -
09:18 9,0 5,4 6,4 NE 16,1 1027,3 78 -
09:24 9,2 5,4 6,4 NE 19,3 1027,3 77 -
09:28 9,3 5,5 9,7 ENE 14,5 1027,3 77 -
09:34 9,5 5,5 4,7 NNE 14,5 1027,3 76 -
09:38 9,6 5,4 4,7 NE 12,9 1027,3 75 -
09:44 9,8 5,6 6,4 NW 12,9 1027,7 75 -
09:48 9,9 5,7 4,7 NE 14,5 1027,7 75 -
09:54 10,1 5,7 4,7 NW 11,3 1027,7 74 -
09:58 10,2 5,8 11,1 North 17,7 1027,7 74 -
10:04 10,2 5,8 9,7 NE 24,1 1027,7 74 -
10:08 10,3 5,9 3,2 NNW 19,3 1027,7 74 -
10:14 10,5 5,9 19,5 NNE 19,3 1028,0 73 -
10:18 10,6 6,0 4,7 North 17,7 1028,0 73 -
10:24 10,8 6,0 11,1 North 16,1 1028,0 72 -
10:28 10,9 6,3 6,4 NNE 12,9 1028,0 73 -
10:34 11,1 6,2 7,9 NNE 19,3 1028,0 72 -
10:38 11,2 6,1 7,9 North 19,3 1028,0 71 -
10:44 11,3 6,2 13,0 NNE 22,5 1028,0 71 -
10:48 11,4 6,1 4,7 North 20,9 1028,0 70 -
10:54 11,7 6,4 7,9 ENE 22,5 1028,0 70 -
10:58 11,8 6,1 16,3 NE 24,1 1028,0 68 -
11:04 11,9 6,2 6,4 North 20,9 1028,0 68 -
11:08 12,2 6,5 16,3 NNW 19,3 1028,0 68 -
11:14 12,3 6,1 4,7 East 25,7 1028,0 66 -
11:18 12,5 6,3 11,1 NNW 29,0 1028,0 66 -
11:24 12,6 6,2 13,0 NE 29,0 1028,0 65 -
11:28 12,8 6,4 32,0 NE 32,2 1028,0 65 -
11:34 13,1 6,4 7,9 NE 24,1 1028,0 64 -
11:38 13,3 6,6 9,7 North 20,9 1028,3 64 -
11:44 13,4 6,7 13,0 NW 20,9 1028,3 64 -
11:48 13,5 6,8 22,7 NNE 27,4 1028,3 64 -
11:54 13,7 6,8 4,7 North 16,1 1028,3 63 -
11:58 13,8 6,6 17,7 NE 27,4 1028,3 62 -
12:04 13,9 6,5 22,7 East 29,0 1028,3 61 -
12:08 14,1 6,7 7,9 East 14,5 1028,3 61 -
12:14 14,2 6,5 6,4 ENE 27,4 1028,3 60 -
12:18 14,4 6,5 13,0 NNE 29,0 1028,3 59 -
12:24 14,6 6,4 11,1 North 24,1 1028,3 58 -
12:28 14,9 6,5 17,7 NNE 32,2 1028,3 57 -
12:34 15,1 6,6 22,7 NE 29,0 1028,3 57 -
12:38 15,1 6,6 11,1 NNE 22,5 1028,7 57 -
12:44 15,4 6,7 16,3 NNE 33,8 1028,7 56 -
12:48 15,6 6,9 6,4 WNW 24,1 1028,7 56 -
12:54 15,5 6,8 27,4 ENE 32,2 1028,7 56 -
12:58 15,4 6,7 27,4 NE 35,4 1028,7 56 -
13:04 15,6 6,9 13,0 ENE 19,3 1028,7 56 -
13:08 15,9 7,1 20,9 NNE 27,4 1028,7 56 -
13:14 16,1 7,3 19,5 NNW 27,4 1028,3 56 -
13:18 16,2 7,4 28,8 North 30,6 1028,7 56 -
13:24 16,6 7,5 24,1 ENE 24,1 1028,7 55 -
13:28 16,7 7,6 13,0 North 24,1 1028,3 55 -
13:34 16,8 8,0 19,5 North 29,0 1028,3 56 -
13:38 16,9 8,1 16,3 ENE 16,1 1028,3 56 -
13:44 17,3 8,2 11,1 NW 24,1 1028,3 55 -
13:48 17,3 8,2 13,0 NNE 24,1 1028,3 55 -
13:52 17,4 8,5 11,1 NE 24,1 1028,3 56 -
13:59 17,6 8,7 28,8 NE 29,0 1028,3 56 -
14:03 17,6 8,7 11,1 North 27,4 1028,3 56 -
14:09 17,6 8,7 13,0 ENE 32,2 1028,0 56 -
14:13 17,7 9,1 13,0 NNE 20,9 1028,3 57 -
14:19 17,6 8,7 16,3 North 20,9 1028,0 56 -
14:23 17,6 8,7 14,3 NNW 27,4 1028,0 56 -
14:29 17,7 9,1 13,0 NNW 19,3 1028,0 57 -
14:33 17,7 8,8 17,7 NNE 33,8 1028,0 56 -
14:39 17,7 8,8 6,4 NNW 27,4 1028,0 56 -
14:43 17,8 9,2 3,2 ENE 29,0 1028,0 57 -
14:49 18,0 9,1 14,3 NNE 24,1 1028,0 56 -
14:53 18,1 9,2 9,7 NNE 22,5 1028,0 56 -
14:59 18,0 9,1 19,5 North 29,0 1028,0 56 -
15:03 18,0 9,4 13,0 NNW 30,6 1028,0 57 -
15:09 18,1 9,4 14,3 North 29,0 1028,0 57 -
15:13 18,0 9,4 22,7 North 29,0 1028,0 57 -
15:19 18,1 9,4 16,3 NNW 30,6 1028,0 57 -
15:23 18,1 9,4 30,6 NE 37,0 1028,0 57 -
15:29 17,9 9,3 30,6 ENE 30,6 1028,0 57 -
15:33 18,1 9,4 25,9 NNE 32,2 1028,0 57 -
15:39 17,9 9,3 14,3 NNE 30,6 1028,0 57 -
15:43 17,9 9,0 24,1 North 38,6 1028,0 56 -
15:49 17,9 9,3 27,4 NE 27,4 1028,0 57 -
15:53 17,9 9,0 9,7 NW 32,2 1028,0 56 -
15:59 18,1 8,6 16,3 NNE 35,4 1028,0 54 -
Daily Summary for Monday 22 October 2018
Time Temp. ( °C ) Dew pt. ( °C ) Wind ( km/h ) from Gust ( km/h ) Pressure ( hPa ) Humid.( % ) Rainrate ( cm )
High18,1 9,4 32,0 NNE ( 475/1917 ) 38,6 1028,7 82 -
Average11,6 6,3 10,0 North #47/192 18,0 1026,4 71 -
Low7,9 4,8 1,4   6,4 1024,3 54 -
Daily Tabular details for Monday 22 October 2018
Time Temp. ( °C ) Dew pt. ( °C ) Wind ( km/h ) from Gust ( km/h ) Pressure ( hPa ) Humid.( % ) Rainrate ( cm )
00:03 11,4 6,3 4,7 NNE 14,5 1024,6 71 -
00:09 11,3 6,4 4,7 NNW 11,3 1024,6 72 -
00:13 11,2 6,3 4,7 NNE 11,3 1024,3 72 -
00:19 11,1 6,2 3,2 NNE 11,3 1024,3 72 -
00:23 11,0 6,3 6,4 North 12,9 1024,3 73 -
00:29 10,9 6,3 3,2 NE 14,5 1024,3 73 -
00:33 10,8 6,2 6,4 North 11,3 1024,6 73 -
00:39 10,8 6,4 4,7 NNW 11,3 1024,6 74 -
00:43 10,7 6,1 4,7 ENE 8,0 1024,3 73 -
00:49 10,7 6,3 7,9 NNE 16,1 1024,6 74 -
00:53 10,7 6,3 13,0 NNE 12,9 1024,6 74 -
00:59 10,8 6,4 11,1 NE 12,9 1024,6 74 -
01:03 10,7 6,3 3,2 NNW 12,9 1024,6 74 -
01:09 10,7 6,3 3,2 NNW 11,3 1024,6 74 -
01:13 10,6 6,2 7,9 North 11,3 1024,6 74 -
01:19 10,5 6,3 4,7 NE 9,7 1024,6 75 -
01:23 10,4 6,2 1,4 North 8,0 1024,6 75 -
01:29 10,4 6,2 4,7 NNW 9,7 1024,6 75 -
01:33 10,6 6,4 3,2 North 12,9 1024,6 75 -
01:39 10,7 6,3 3,2 NNW 14,5 1024,6 74 -
01:43 10,7 6,3 4,7 North 9,7 1024,6 74 -
01:49 10,8 6,2 9,7 NNW 11,3 1024,6 73 -
01:53 10,8 6,2 3,2 NNW 12,9 1024,6 73 -
01:59 10,7 6,1 7,9 NW 17,7 1024,6 73 -
02:03 10,7 6,1 6,4 NNE 8,0 1024,6 73 -
02:09 10,7 6,3 3,2 NE 11,3 1024,6 74 -
02:13 10,6 6,0 3,2 NNE 9,7 1024,6 73 -
02:19 10,6 6,2 9,7 NNE 11,3 1024,6 74 -
02:23 10,7 6,3 4,7 NNW 12,9 1024,6 74 -
02:29 10,7 6,1 9,7 NNE 14,5 1024,9 73 -
02:33 10,6 6,0 9,7 North 16,1 1024,9 73 -
02:39 10,6 6,2 6,4 North 16,1 1024,9 74 -
02:43 10,5 6,1 6,4 North 16,1 1024,9 74 -
02:49 10,4 6,0 4,7 NNW 12,9 1024,9 74 -
02:53 10,5 6,1 6,4 ENE 16,1 1024,9 74 -
02:59 10,5 6,1 4,7 North 12,9 1024,9 74 -
03:03 10,5 6,1 11,1 NNW 14,5 1024,9 74 -
03:09 10,4 6,0 7,9 NW 16,1 1024,9 74 -
03:13 10,4 6,0 6,4 NE 16,1 1024,9 74 -
03:19 10,4 6,0 1,4 ENE 16,1 1024,9 74 -
03:23 10,3 5,9 4,7 NE 9,7 1024,9 74 -
03:29 10,2 5,8 6,4 North 11,3 1024,9 74 -
03:33 10,1 5,7 3,2 NW 6,4 1024,9 74 -
03:39 9,8 5,6 1,4 NW 8,0 1024,9 75 -
03:43 9,8 5,8 4,7 North 6,4 1024,9 76 -
03:49 9,7 5,7 1,4 North 8,0 1024,9 76 -
03:53 9,7 5,7 4,7 NNW 6,4 1024,9 76 -
03:59 9,7 5,7 1,4 NNW 9,7 1024,9 76 -
04:03 9,7 5,7 3,2 NE 8,0 1024,9 76 -
04:09 9,8 5,8 14,3 North 16,1 1024,9 76 -
04:13 9,8 5,8 6,4 NNE 12,9 1024,9 76 -
04:19 9,8 5,8 9,7 North 16,1 1024,9 76 -
04:23 9,8 5,8 4,7 NNW 11,3 1024,9 76 -
04:29 9,8 5,8 9,7 North 11,3 1024,9 76 -
04:33 9,8 5,8 4,7 NNE 8,0 1024,9 76 -
04:39 9,8 5,8 13,0 NE 14,5 1024,9 76 -
04:43 9,7 5,7 13,0 NE 19,3 1024,9 76 -
04:49 9,6 5,8 11,1 NNE 17,7 1024,9 77 -
04:53 9,5 5,7 11,1 NE 16,1 1024,9 77 -
04:59 9,3 5,5 11,1 NE 19,3 1024,9 77 -
05:03 9,3 5,7 9,7 NNE 20,9 1024,9 78 -
05:09 9,1 5,5 3,2 North 19,3 1024,9 78 -
05:13 9,0 5,4 7,9 North 12,9 1024,9 78 -
05:19 8,8 5,4 7,9 NNW 16,1 1024,9 79 -
05:23 8,8 5,4 7,9 North 12,9 1024,9 79 -
05:29 8,7 5,4 4,7 NNE 11,3 1024,9 80 -
05:33 8,6 5,3 7,9 North 9,7 1024,9 80 -
05:39 8,6 5,3 6,4 NNE 11,3 1024,9 80 -
05:43 8,4 5,2 4,7 NNW 9,7 1024,9 80 -
05:49 8,4 5,2 7,9 NNW 11,3 1024,9 80 -
05:53 8,4 5,3 4,7 NE 12,9 1024,9 81 -
05:59 8,3 5,2 7,9 NNE 12,9 1024,9 81 -
06:03 8,3 5,2 11,1 North 12,9 1025,3 81 -
06:07 8,3 5,2 6,4 NNW 16,1 1024,9 81 -
06:13 8,3 5,2 7,9 NNE 16,1 1024,9 81 -
06:18 8,3 5,2 11,1 NNE 14,5 1025,3 81 -
06:24 8,2 5,1 13,0 North 12,9 1025,3 81 -
06:28 8,1 5,0 6,4 NNE 14,5 1025,3 81 -
06:34 8,1 5,0 7,9 NNE 12,9 1025,3 81 -
06:38 8,1 5,0 13,0 NNW 12,9 1025,3 81 -
06:44 8,0 5,1 9,7 NE 11,3 1025,3 82 -
06:48 8,0 5,1 6,4 ENE 14,5 1025,6 82 -
06:54 8,0 4,9 9,7 ESE 14,5 1025,6 81 -
06:58 8,0 5,1 13,0 NNE 14,5 1025,6 82 -
07:04 8,0 4,9 4,7 NNE 11,3 1025,6 81 -
07:08 7,9 4,8 7,9 NNE 12,9 1025,6 81 -
07:14 8,0 4,9 6,4 North 12,9 1025,6 81 -
07:18 8,1 5,0 9,7 NNW 14,5 1025,6 81 -
07:24 8,2 5,0 16,3 North 17,7 1025,6 80 -
07:28 8,3 5,1 6,4 NNW 12,9 1025,6 80 -
07:34 8,3 5,1 9,7 North 14,5 1026,0 80 -
07:38 8,2 5,0 11,1 North 16,1 1026,0 80 -
07:44 8,2 5,0 13,0 NNW 19,3 1026,0 80 -
07:48 8,3 4,9 7,9 NNW 14,5 1026,0 79 -
07:54 8,2 4,8 7,9 NE 11,3 1026,0 79 -
07:58 8,2 4,8 4,7 NNE 14,5 1026,0 79 -
08:04 8,2 4,8 9,7 North 12,9 1026,0 79 -
08:08 8,2 4,8 6,4 NW 12,9 1026,3 79 -
08:14 8,2 4,8 3,2 ENE 20,9 1026,3 79 -
08:18 8,2 4,8 7,9 WNW 12,9 1026,3 79 -
08:24 8,2 4,8 6,4 North 14,5 1026,6 79 -
08:28 8,2 5,0 3,2 NNW 9,7 1026,6 80 -
08:34 8,2 5,0 6,4 NNW 16,1 1026,6 80 -
08:38 8,3 4,9 7,9 NNE 12,9 1026,6 79 -
08:44 8,2 5,0 1,4 NE 11,3 1026,6 80 -
08:48 8,2 5,0 14,3 North 14,5 1027,0 80 -
08:54 8,3 5,1 7,9 NNE 9,7 1027,0 80 -
08:58 8,4 5,0 4,7 NNE 9,7 1027,0 79 -
09:04 8,6 5,2 14,3 NE 17,7 1027,0 79 -
09:08 8,7 5,1 6,4 NE 19,3 1027,0 78 -
09:14 8,8 5,2 4,7 ENE 19,3 1027,0 78 -
09:18 9,0 5,4 6,4 NE 16,1 1027,3 78 -
09:24 9,2 5,4 6,4 NE 19,3 1027,3 77 -
09:28 9,3 5,5 9,7 ENE 14,5 1027,3 77 -
09:34 9,5 5,5 4,7 NNE 14,5 1027,3 76 -
09:38 9,6 5,4 4,7 NE 12,9 1027,3 75 -
09:44 9,8 5,6 6,4 NW 12,9 1027,7 75 -
09:48 9,9 5,7 4,7 NE 14,5 1027,7 75 -
09:54 10,1 5,7 4,7 NW 11,3 1027,7 74 -
09:58 10,2 5,8 11,1 North 17,7 1027,7 74 -
10:04 10,2 5,8 9,7 NE 24,1 1027,7 74 -
10:08 10,3 5,9 3,2 NNW 19,3 1027,7 74 -
10:14 10,5 5,9 19,5 NNE 19,3 1028,0 73 -
10:18 10,6 6,0 4,7 North 17,7 1028,0 73 -
10:24 10,8 6,0 11,1 North 16,1 1028,0 72 -
10:28 10,9 6,3 6,4 NNE 12,9 1028,0 73 -
10:34 11,1 6,2 7,9 NNE 19,3 1028,0 72 -
10:38 11,2 6,1 7,9 North 19,3 1028,0 71 -
10:44 11,3 6,2 13,0 NNE 22,5 1028,0 71 -
10:48 11,4 6,1 4,7 North 20,9 1028,0 70 -
10:54 11,7 6,4 7,9 ENE 22,5 1028,0 70 -
10:58 11,8 6,1 16,3 NE 24,1 1028,0 68 -
11:04 11,9 6,2 6,4 North 20,9 1028,0 68 -
11:08 12,2 6,5 16,3 NNW 19,3 1028,0 68 -
11:14 12,3 6,1 4,7 East 25,7 1028,0 66 -
11:18 12,5 6,3 11,1 NNW 29,0 1028,0 66 -
11:24 12,6 6,2 13,0 NE 29,0 1028,0 65 -
11:28 12,8 6,4 32,0 NE 32,2 1028,0 65 -
11:34 13,1 6,4 7,9 NE 24,1 1028,0 64 -
11:38 13,3 6,6 9,7 North 20,9 1028,3 64 -
11:44 13,4 6,7 13,0 NW 20,9 1028,3 64 -
11:48 13,5 6,8 22,7 NNE 27,4 1028,3 64 -
11:54 13,7 6,8 4,7 North 16,1 1028,3 63 -
11:58 13,8 6,6 17,7 NE 27,4 1028,3 62 -
12:04 13,9 6,5 22,7 East 29,0 1028,3 61 -
12:08 14,1 6,7 7,9 East 14,5 1028,3 61 -
12:14 14,2 6,5 6,4 ENE 27,4 1028,3 60 -
12:18 14,4 6,5 13,0 NNE 29,0 1028,3 59 -
12:24 14,6 6,4 11,1 North 24,1 1028,3 58 -
12:28 14,9 6,5 17,7 NNE 32,2 1028,3 57 -
12:34 15,1 6,6 22,7 NE 29,0 1028,3 57 -
12:38 15,1 6,6 11,1 NNE 22,5 1028,7 57 -
12:44 15,4 6,7 16,3 NNE 33,8 1028,7 56 -
12:48 15,6 6,9 6,4 WNW 24,1 1028,7 56 -
12:54 15,5 6,8 27,4 ENE 32,2 1028,7 56 -
12:58 15,4 6,7 27,4 NE 35,4 1028,7 56 -
13:04 15,6 6,9 13,0 ENE 19,3 1028,7 56 -
13:08 15,9 7,1 20,9 NNE 27,4 1028,7 56 -
13:14 16,1 7,3 19,5 NNW 27,4 1028,3 56 -
13:18 16,2 7,4 28,8 North 30,6 1028,7 56 -
13:24 16,6 7,5 24,1 ENE 24,1 1028,7 55 -
13:28 16,7 7,6 13,0 North 24,1 1028,3 55 -
13:34 16,8 8,0 19,5 North 29,0 1028,3 56 -
13:38 16,9 8,1 16,3 ENE 16,1 1028,3 56 -
13:44 17,3 8,2 11,1 NW 24,1 1028,3 55 -
13:48 17,3 8,2 13,0 NNE 24,1 1028,3 55 -
13:52 17,4 8,5 11,1 NE 24,1 1028,3 56 -
13:59 17,6 8,7 28,8 NE 29,0 1028,3 56 -
14:03 17,6 8,7 11,1 North 27,4 1028,3 56 -
14:09 17,6 8,7 13,0 ENE 32,2 1028,0 56 -
14:13 17,7 9,1 13,0 NNE 20,9 1028,3 57 -
14:19 17,6 8,7 16,3 North 20,9 1028,0 56 -
14:23 17,6 8,7 14,3 NNW 27,4 1028,0 56 -
14:29 17,7 9,1 13,0 NNW 19,3 1028,0 57 -
14:33 17,7 8,8 17,7 NNE 33,8 1028,0 56 -
14:39 17,7 8,8 6,4 NNW 27,4 1028,0 56 -
14:43 17,8 9,2 3,2 ENE 29,0 1028,0 57 -
14:49 18,0 9,1 14,3 NNE 24,1 1028,0 56 -
14:53 18,1 9,2 9,7 NNE 22,5 1028,0 56 -
14:59 18,0 9,1 19,5 North 29,0 1028,0 56 -
15:03 18,0 9,4 13,0 NNW 30,6 1028,0 57 -
15:09 18,1 9,4 14,3 North 29,0 1028,0 57 -
15:13 18,0 9,4 22,7 North 29,0 1028,0 57 -
15:19 18,1 9,4 16,3 NNW 30,6 1028,0 57 -
15:23 18,1 9,4 30,6 NE 37,0 1028,0 57 -
15:29 17,9 9,3 30,6 ENE 30,6 1028,0 57 -
15:33 18,1 9,4 25,9 NNE 32,2 1028,0 57 -
15:39 17,9 9,3 14,3 NNE 30,6 1028,0 57 -
15:43 17,9 9,0 24,1 North 38,6 1028,0 56 -
15:49 17,9 9,3 27,4 NE 27,4 1028,0 57 -
15:53 17,9 9,0 9,7 NW 32,2 1028,0 56 -
15:59 18,1 8,6 16,3 NNE 35,4 1028,0 54 -

Download your copy of this data-set  here

Our weather-data as stored at Weather Underground. Script developed by Jim McMurry. Adapted for the template by Leuven-Template.eu

You find our weather info also at:

Weather Underground

Equipment we use:

Weather-station
Davis Vue

Weather-program
Meteobridge

Weather-server
Raspberry PI 2 B+

Provider
1 and 1

Davis Vue

Meteobridge

Raspberry PI 2 B+

1 and 1